User: anonymous   Login
Location: Unspecified
(0.0000°N, 0.0000°E)
Time: 00:19:38
(UTC+00:00)
Language:

NOAA 19 - Orbit

View from above orbital plane
View from above orbital plane
View from above satellite
View from above satellite

Ground track
Ground track

The orbit data is extracted from the following two-line orbital elements,

1 33591U 09005A   21136.53257114  .00000063  00000-0  59223-4 0  9990
2 33591  99.1854 156.4445 0013323 218.6251 141.3968 14.12467237632151
Epoch (UTC): 16 May 2021 12:46:54
Eccentricity: 0.0013323
inclination: 99.1854°
perigee height: 841 km
apogee height: 860 km
right ascension of ascending node: 156.4445°
argument of perigee: 218.6251°
revolutions per day: 14.12467237
mean anomaly at epoch: 141.3968°
orbit number at epoch: 63215

The dashed part of the orbit path shows where the satellite is in the earth's shadow,  

DLR